Location: Bilsen
(53.7722°N, 9.8765°E)
Time: 19:55:41
(UTC+00:00)

Cosmos 2333 Rocket - Pass Details

Date: 18 February 2020
Orbit: 841 x 861 km, 70.8° (Epoch: 30 March)

Event Time Altitude Azimuth Distance (km) Brightness Sun altitude
Exits shadow 01:37:56 21° 48° (NE) 1,827 4.4 -41.5°
Drops below altitude 10° 01:39:52 10° 40° (NE) 2,496 5.3 -41.3°
Sets 01:42:23 0° 35° (NE) 3,433 6.2 -41.0°
